Regional Weather Roundup
Issued by NWS Cleveland, OH

Home | Current Version | Previous Version | Graphics & Text | Print | Product List | Glossary On
Versions: 1 2 3 4 5 6 7 8 9 10 11 12 13 14 15 16 17 18 19 20 21 22 23 24 25 26 27 28 29 30 31 32 33 34 35 36 37 38 39 40 41 42 43 44 45 46 47 48 49 50
000
ASUS41 KCLE 030702
RWRCLE
OHIO REGIONAL WEATHER ROUNDUP
NATIONAL WEATHER SERVICE CLEVELAND, OH
200 AM EST TUE MAR 03 2015

NOTE: "FAIR" INDICATES FEW OR NO CLOUDS BELOW 12,000 FEET WITH NO
SIGNIFICANT WEATHER AND/OR OBSTRUCTIONS TO VISIBILITY.

OHZ001>008-015>018-024>027-034-035-043-044-030800-
   NORTHWEST OHIO

CITY           SKY/WX    TMP DP  RH WIND       PRES   REMARKS
DEFIANCE       CLOUDY    23  14  68 E3        30.30F
FINDLAY        CLOUDY    21  13  71 E5        30.29F WCI  15
TOLEDO EXPRESS CLOUDY    21  13  71 CALM      30.31F
TOLEDO EXEC    CLOUDY    22  14  71 S3        30.34F
LIMA           CLOUDY    21  13  71 E6        30.26F WCI  13
$$

OHZ009>014-019>023-028>033-038-089-030800-
   NORTHEAST OHIO

CITY           SKY/WX    TMP DP  RH WIND       PRES   REMARKS
CLE-HOPKINS    CLOUDY    21  12  68 SE5       30.36F WCI  15
CLE-LAKEFRONT  CLOUDY    23  12  62 SE7       30.34F WCI  15
CUY CO. ARPT   NOT AVBL
LORAIN-ELYRIA  CLOUDY    18  11  74 S5        30.33F WCI  11
ASHTABULA      CLOUDY    13   7  77 CALM      30.35F
AKRON-CANTON   CLOUDY    21  11  65 SE7       30.31F WCI  12
WOOSTER        CLOUDY    14   9  80 E3        30.30F
MANSFIELD      CLOUDY    21  11  65 SE8       30.28F WCI  11
YOUNGSTOWN     CLOUDY    18   9  68 E7        30.32F WCI   9
$$

OHZ042-051>053-060>062-070>072-077>081-030800-
  SOUTHWEST OHIO

CITY           SKY/WX    TMP DP  RH WIND       PRES   REMARKS
CINC-COVINGTON CLOUDY    27  14  58 E6        30.26R WCI  20
CINC-LUNKEN    CLOUDY    26  15  63 N3        30.30S
HAMILTON       CLOUDY    26  15  63 E5        30.28F WCI  20
DAYTON         CLOUDY    23  14  68 E9        30.25F WCI  13
WRIGHT-PAT AFB CLOUDY    22  13  68 NE3       30.26F
DAYTON GENERAL CLOUDY    24  14  65 E7        30.25F WCI  16
WILMINGTON     CLOUDY    21  12  68 E8        30.25F WCI  11
$$

OHZ036-037-039>041-045>050-054>059-063>069-073>076-082>088-030800-
  CENTRAL AND SOUTHEAST OHIO

CITY           SKY/WX    TMP DP  RH WIND       PRES   REMARKS
COLUMBUS       CLOUDY    23  13  65 E3        30.30F
OSU AIRPORT    CLOUDY    23  14  68 E6        30.29F WCI  16
BOLTON FIELD   CLOUDY   N/A N/A N/A NE3       30.29F
RICKENBACK AFB NOT AVBL
NEWARK         CLOUDY    20  12  71 CALM      30.30F
MARION         CLOUDY    18  10  71 CALM      30.30F
LANCASTER      CLOUDY    18  14  84 CALM      30.29F FOG
ZANESVILLE     CLOUDY    19  12  74 CALM      30.31F
NEW PHILLY     CLOUDY    18  10  71 CALM      30.34F
$$



USA.gov is the U.S. government's official web portal to all federal, state and local government web resources and services.